Waarnemingen

Advertentie
Mijn weer
Schaffen, België (6465): temperatuur & dauwpunt: 05.12.2017 10:00:00 - 11.12.2017 10:00:00 (CET)Schaffen, België (6465): windsnelheid & windstoten: 05.12.2017 10:00:00 - 11.12.2017 10:00:00 (CET)Schaffen, België (6465): windrichting: 05.12.2017 10:00:00 - 11.12.2017 10:00:00 (CET)Schaffen, België (6465): luchtdruk: 05.12.2017 10:00:00 - 11.12.2017 10:00:00 (CET)Schaffen, België (6465): zicht: 05.12.2017 10:00:00 - 11.12.2017 10:00:00 (CET)
Datum & Tijd tt [°C] td [°C] ff [km/u] ff [kn] fx [km/u] fx [kn] dd ppp [hPa] vv [km]
11.12.2017 10:00:00 0,0 0,0 18 10 - - ONO 980,3 1,0
11.12.2017 09:00:00 0,8 0,0 18 10 32 18 ONO 980,6 3,7
11.12.2017 08:00:00 1,3 -0,1 14 8 32 18 ONO 980,8 20
11.12.2017 07:00:00 1,5 -0,7 14 8 - - ONO 981,5 20
11.12.2017 06:00:00 1,2 0,4 14 8 22 12 ONO 982,4 8
11.12.2017 05:00:00 0,3 0,1 7 4 11 6 ONO 983,6 6
11.12.2017 04:00:00 -0,1 -0,2 4 2 - - N 984,7 5
11.12.2017 03:00:00 0,3 -0,3 4 2 7 4 N 984,5 7
11.12.2017 02:00:00 1,7 0,5 4 2 11 6 N 984,1 20
11.12.2017 01:00:00 1,5 0,1 7 4 - - WZW 984,2 20
11.12.2017 00:00:00 2,1 0,4 11 6 25 14 WZW 982,9 20
10.12.2017 23:00:00 2,6 0,5 14 8 43 23 WZW 982,1 20
10.12.2017 22:00:00 3,2 0,6 29 16 - - WZW 980,6 20
10.12.2017 21:00:00 4,0 0,6 32 18 61 33 W 978,6 20
10.12.2017 20:00:00 6,5 4,1 29 16 58 31 WZW 976,3 16
10.12.2017 19:00:00 6,7 5,0 24 13 - - ZW 974,7 2,9
10.12.2017 18:00:00 6,3 4,3 28 15 83 45 WZW 973,8 3,7
10.12.2017 17:00:00 7,3 3,2 29 16 47 25 ZZW 973,4 14
10.12.2017 16:00:00 5,7 3,1 22 12 - - ZZW 974,3 19
10.12.2017 15:00:00 5,4 3,0 25 14 40 21 ZZW 974,7 11
10.12.2017 14:00:00 3,2 1,9 22 12 36 19 ZZW 975,4 20
10.12.2017 13:00:00 0,0 0,0 18 10 - - ZZO 977,2 3,0
10.12.2017 12:00:00 -0,1 -0,1 22 12 40 21 ZO 979,5 1,2
10.12.2017 11:00:00 0,0 0,0 22 12 40 21 ZO 982,9 1,7
10.12.2017 10:00:00 0,4 0,0 22 12 - - ZO 987,1 2,3
10.12.2017 09:00:00 1,3 0,0 18 10 36 19 ZZO 990,8 17
10.12.2017 08:00:00 1,8 -0,2 14 8 29 16 Z 993,4 20
10.12.2017 07:00:00 1,7 -0,1 14 8 - - Z 996,1 20
10.12.2017 06:00:00 1,7 0,0 18 10 32 18 Z 998,3 20
10.12.2017 05:00:00 1,7 0,1 14 8 29 16 Z 1000,7 19
10.12.2017 04:00:00 1,6 0,2 14 8 - - ZZW 1002,6 15
10.12.2017 03:00:00 1,1 0,2 14 8 29 16 ZZW 1004,2 10
10.12.2017 02:00:00 1,2 0,0 14 8 25 14 ZZW 1005,7 8
10.12.2017 01:00:00 1,3 -0,3 14 8 - - ZZW 1007,2 13
10.12.2017 00:00:00 1,4 -0,6 14 8 29 16 ZZW 1008,5 20
09.12.2017 23:00:00 0,8 -0,9 14 8 29 16 ZZW 1009,2 20
09.12.2017 22:00:00 1,3 -0,8 14 8 - - ZZW 1010,5 20
09.12.2017 21:00:00 1,6 -0,9 14 8 25 14 ZZW 1011,2 20
09.12.2017 20:00:00 1,6 -1,3 14 8 25 14 ZZW 1012,0 20
09.12.2017 19:00:00 1,3 -1,4 11 6 - - ZZW 1012,5 20
09.12.2017 18:00:00 1,6 -1,9 11 6 22 12 ZW 1013,2 20
09.12.2017 17:00:00 1,6 -2,1 11 6 29 16 WZW 1013,7 20
09.12.2017 16:00:00 2,4 -1,4 18 10 - - WZW 1013,7 20
09.12.2017 15:00:00 2,5 -0,9 18 10 29 16 ZW 1014,0 20
09.12.2017 14:00:00 2,5 -0,8 11 6 29 16 ZW 1014,7 20
09.12.2017 13:00:00 2,2 -1,0 14 8 - - ZW 1015,0 20
09.12.2017 12:00:00 1,6 -1,0 18 10 36 19 WZW 1015,2 20
09.12.2017 11:00:00 1,2 -1,5 14 8 29 16 ZW 1015,5 20
09.12.2017 10:00:00 1,1 -1,8 18 10 - - WZW 1015,2 20
09.12.2017 09:00:00 0,8 -2,1 18 10 29 16 WZW 1015,0 20
09.12.2017 08:00:00 0,5 -2,4 18 10 32 18 WZW 1014,7 20
09.12.2017 07:00:00 0,6 -2,6 18 10 - - WZW 1014,5 20
09.12.2017 06:00:00 0,4 -2,7 14 8 32 18 WZW 1014,7 20
09.12.2017 05:00:00 0,2 -2,9 18 10 32 18 WZW 1014,3 20
09.12.2017 04:00:00 0,0 -2,9 14 8 - - WZW 1014,7 20
09.12.2017 03:00:00 -0,1 -3,1 14 8 22 12 WZW 1014,8 20
09.12.2017 02:00:00 0,2 -3,2 14 8 29 16 WZW 1014,5 20
09.12.2017 01:00:00 0,6 -3,0 18 10 - - WZW 1014,3 20
09.12.2017 00:00:00 1,1 -2,8 14 8 29 16 WZW 1014,5 20
08.12.2017 23:00:00 1,2 -2,7 18 10 32 18 WZW 1014,2 20
08.12.2017 22:00:00 1,5 -2,1 22 12 - - W 1014,0 20
08.12.2017 21:00:00 1,4 -2,4 18 10 29 16 WZW 1013,5 20
08.12.2017 20:00:00 1,8 -2,3 14 8 36 19 WZW 1013,2 20
08.12.2017 19:00:00 2,0 -2,1 18 10 - - WZW 1013,0 18
08.12.2017 18:00:00 2,0 -1,7 14 8 32 18 WZW 1012,8 20
08.12.2017 17:00:00 2,5 -1,4 18 10 29 16 W 1012,6 20
08.12.2017 16:00:00 2,0 -0,3 14 8 - - W 1012,2 20
08.12.2017 15:00:00 2,5 -0,4 25 14 47 25 W 1011,7 20
08.12.2017 14:00:00 4,4 -0,3 22 12 36 19 W 1011,2 20
08.12.2017 13:00:00 4,2 1,7 14 8 - - W 1011,1 20
08.12.2017 12:00:00 3,0 0,8 22 12 36 19 W 1010,7 20
08.12.2017 11:00:00 2,7 0,7 22 12 40 21 W 1010,8 8
08.12.2017 10:00:00 3,4 -0,2 18 10 - - WZW 1010,2 20
08.12.2017 09:00:00 2,2 -0,4 11 6 22 12 ZW 1009,8 20
08.12.2017 08:00:00 2,5 -0,1 11 6 18 10 WNW 1010,1 20
08.12.2017 07:00:00 2,7 0,1 11 6 - - WZW 1010,2 20
08.12.2017 06:00:00 2,9 0,4 11 6 22 12 ZW 1010,2 20
08.12.2017 05:00:00 3,2 1,2 13 7 29 16 WZW 1010,6 10
08.12.2017 04:00:00 3,9 0,9 18 10 - - W 1010,6 20
08.12.2017 03:00:00 4,8 2,2 14 8 25 14 WZW 1010,2 20
08.12.2017 02:00:00 4,5 2,5 11 6 18 10 ZW 1009,8 16
08.12.2017 01:00:00 5,3 3,2 11 6 - - W 1009,7 15
08.12.2017 00:00:00 5,9 4,2 14 8 32 18 W 1009,5 14
07.12.2017 23:00:00 6,0 4,8 14 8 25 14 W 1009,2 13
07.12.2017 22:00:00 6,1 5,4 11 6 - - W 1008,7 12
07.12.2017 21:00:00 6,6 5,6 18 10 36 19 WNW 1008,2 20
07.12.2017 20:00:00 6,6 6,1 14 8 43 23 ZW 1007,7 2,6
07.12.2017 19:00:00 6,5 5,4 22 12 - - ZZW 1007,3 6
07.12.2017 18:00:00 6,3 5,3 32 18 50 27 ZZW 1007,7 8
07.12.2017 17:00:00 6,3 4,6 29 16 54 29 ZZW 1008,5 6
07.12.2017 16:00:00 6,0 4,3 25 14 - - ZZW 1009,5 14
07.12.2017 15:00:00 5,9 4,2 29 16 54 29 ZZW 1010,6 6
07.12.2017 14:00:00 5,9 3,2 25 14 54 29 ZZW 1011,7 10
07.12.2017 13:00:00 5,5 2,8 32 18 - - ZZW 1013,5 10
07.12.2017 12:00:00 4,9 2,3 25 14 47 25 ZZW 1014,8 10
07.12.2017 11:00:00 4,4 1,7 25 14 50 27 ZZW 1016,5 13
07.12.2017 10:00:00 3,9 0,6 22 12 - - Z 1017,2 13
07.12.2017 09:00:00 3,1 0,0 29 16 43 23 Z 1017,8 13
07.12.2017 08:00:00 2,7 0,1 29 16 43 23 Z 1018,6 13
07.12.2017 07:00:00 3,2 0,6 25 14 - - Z 1019,6 13
07.12.2017 06:00:00 3,5 0,9 22 12 43 23 Z 1020,8 13
07.12.2017 05:00:00 4,3 0,5 25 14 43 23 ZZW 1021,1 20
07.12.2017 04:00:00 4,2 0,9 22 12 - - ZZW 1022,5 19
07.12.2017 03:00:00 5,5 0,0 22 12 43 23 ZW 1023,5 20
07.12.2017 02:00:00 5,7 0,0 22 12 40 21 ZW 1024,0 20
07.12.2017 01:00:00 6,1 0,6 22 12 - - ZZW 1024,5 20
07.12.2017 00:00:00 6,3 2,3 18 10 29 16 ZZW 1025,5 18
06.12.2017 23:00:00 6,5 2,9 14 8 29 16 ZZW 1026,5 17
06.12.2017 22:00:00 6,5 3,3 14 8 - - ZZW 1027,2 14
06.12.2017 21:00:00 6,6 3,8 14 8 25 14 ZZW 1027,9 11
06.12.2017 20:00:00 6,9 3,9 18 10 25 14 ZZW 1028,5 13
06.12.2017 19:00:00 7,0 4,1 14 8 - - ZZW 1028,7 13
06.12.2017 18:00:00 7,1 4,3 14 8 29 16 ZZW 1029,2 15
06.12.2017 17:00:00 7,2 4,8 11 6 18 10 ZZW 1029,5 10
06.12.2017 16:00:00 7,3 4,8 7 4 - - ZW 1030,0 12
06.12.2017 15:00:00 7,4 5,0 11 6 18 10 ZZW 1030,2 12
06.12.2017 14:00:00 7,4 5,0 7 4 18 10 ZW 1030,9 12
06.12.2017 13:00:00 7,5 5,0 7 4 - - ZW 1031,5 12
06.12.2017 12:00:00 7,4 4,8 7 4 22 12 ZW 1032,0 11
06.12.2017 11:00:00 7,1 4,7 7 4 18 10 ZW 1032,4 11
06.12.2017 10:00:00 6,9 4,5 7 4 - - ZW 1032,4 10
06.12.2017 09:00:00 6,5 4,4 11 6 22 12 ZW 1032,5 10
06.12.2017 08:00:00 6,4 4,3 7 4 14 8 ZW 1032,7 10
06.12.2017 07:00:00 6,4 3,9 7 4 - - ZW 1032,7 10
06.12.2017 06:00:00 6,5 3,7 7 4 14 8 ZW 1033,0 10
06.12.2017 05:00:00 6,5 3,6 7 4 14 8 ZW 1033,2 16
06.12.2017 04:00:00 6,3 3,5 7 4 - - ZW 1033,5 14
06.12.2017 03:00:00 6,2 3,4 7 4 18 10 ZW 1033,9 13
06.12.2017 02:00:00 6,0 3,5 7 4 14 8 ZZW 1034,2 11
06.12.2017 01:00:00 6,0 3,6 7 4 - - ZW 1034,2 10
06.12.2017 00:00:00 6,0 3,5 7 4 14 8 ZW 1034,2 10
05.12.2017 23:00:00 6,0 3,5 7 4 14 8 ZW 1034,7 12
05.12.2017 22:00:00 6,0 3,5 7 4 - - ZW 1034,9 12
05.12.2017 21:00:00 6,3 3,3 7 4 14 8 ZW 1035,0 14
05.12.2017 20:00:00 6,4 3,0 7 4 18 10 ZW 1035,2 17
05.12.2017 19:00:00 6,5 3,2 7 4 - - ZW 1035,4 17
05.12.2017 18:00:00 6,5 3,4 7 4 14 8 ZW 1035,4 15
05.12.2017 17:00:00 6,5 3,4 7 4 18 10 ZW 1035,4 12
05.12.2017 16:00:00 6,6 3,6 7 4 - - ZW 1035,2 12
05.12.2017 15:00:00 6,6 3,7 11 6 18 10 ZW 1035,2 12
05.12.2017 14:00:00 6,5 3,8 7 4 18 10 ZW 1035,4 9
05.12.2017 13:00:00 6,1 3,9 7 4 - - ZW 1035,5 9
05.12.2017 12:00:00 6,0 3,8 7 4 18 10 ZW 1035,9 9
05.12.2017 11:00:00 5,8 3,8 11 6 18 10 ZW 1036,0 7
05.12.2017 10:00:00 5,5 3,8 11 6 - - ZW 1036,0 7

tt = temperatuur
td = dauwpunt
ff = windsnelheid
fx = windstoten
dd = windrichting
ppp = luchtdruk
vv = zicht

Weerstations in de omgeving